Old Res Weather

Lexington, Massachusetts, USA

33°F
11/30/2022 1:11am 
  • Lexington Conditions: Overcast
  • Temperature: 32.7°F / 0.4°CWarmer 0.9°F than last hour.
  • Dew Point: 29.8°FIncreased 2.3°Fsince last hour.
  • Relative Humidity: 89%Increased 5.0% since last hour.
  • Wind: Calm, 10-min avg: Calm, gust: None
  • Barometer: 30.30 inFalling 0.03  inHg/hr Falling Slowly
  • Visibility: 10 miles
  • Rain Today: 0.00 in
  • UV Index: $VPuv None
  •   
Southeast Middlesex County, MA - Wind Advisory
 - SEE ALL NEARBY ALERTS -

Regional Weather Roundup
for Boston, MA

        
000
ASUS41 KBOX 300510
RWRBOX

REGIONAL WEATHER ROUNDUP
NATIONAL WEATHER SERVICE BOSTON/NORTON MA
1200 AM EST WED NOV 30 2022

NOTE:  "FAIR" INDICATES FEW OR NO CLOUDS BELOW 12,000 FEET WITH NO 
SIGNIFICANT WEATHER AND/OR OBSTRUCTIONS TO VISIBILITY.

MAZALL-300600-
EASTERN MASSACHUSETTS
  
CITY           SKY/WX    TMP DP  RH WIND       PRES   REMARKS
BOSTON         MOCLDY    38  32  79 S6        30.32F                  
BEVERLY        MOCLDY    35  30  82 SW3       30.31S                  
LAWRENCE       CLOUDY    37  30  75 CALM      30.32F                  
BEDFORD        CLEAR     30  27  88 CALM      30.30F                  
NORWOOD        CLOUDY    32  30  92 CALM      30.32S                  
MARSHFIELD       N/A     36  32  87 CALM      30.32S                  
PLYMOUTH       PTCLDY    31  28  89 CALM      30.31F                  
TAUNTON          N/A    N/A N/A N/A MISG      30.31F                  
NEW BEDFORD    CLOUDY    33  32  96 CALM      30.31F                  
$$

MAZALL-300600-
CAPE COD AND THE ISLANDS
  
CITY           SKY/WX    TMP DP  RH WIND       PRES   REMARKS
FALMOUTH       CLEAR     28  28 100 CALM      30.31F                  
HYANNIS        PTCLDY    32  31  96 CALM      30.31S                  
CHATHAM        CLOUDY    40  35  83 CALM      30.32S                  
PROVINCETOWN   CLOUDY    42  38  85 E5        30.32F                  
NANTUCKET      PTCLDY    35  33  92 CALM      30.31F                  
MARTHAS VNYRD  MOCLDY    28  25  88 CALM      30.31F                  
$$
 
MAZALL-300600-
CENTRAL AND WESTERN MASSACHUSETTS
  
CITY           SKY/WX    TMP DP  RH WIND       PRES   REMARKS
WORCESTER      CLOUDY    34  27  75 CALM      30.27S                  
FITCHBURG      CLOUDY    30  25  81 CALM      30.32S                  
ORANGE         MOCLDY    26  23  88 CALM      30.30S                  
SPRINGFIELD    MOCLDY    25  24  97 CALM      30.26F                  
WESTFIELD      CLOUDY    27  25  92 CALM      30.28F                  
NORTH ADAMS    PTCLDY    30  24  78 E9        30.25S WCI  22          
PITTSFIELD     PTCLDY    26  23  88 NE3       30.21F                  
$$
 
RIZALL-300600-
RHODE ISLAND
  
CITY           SKY/WX    TMP DP  RH WIND       PRES   REMARKS
PROVIDENCE     CLOUDY    36  30  79 CALM      30.30F                  
NEWPORT        CLOUDY    39  31  72 E5        30.29F                  
BLOCK ISLAND   CLOUDY    42  36  79 CALM      30.29F                  
SMITHFIELD     CLOUDY    34  31  88 CALM      30.30S                  
WESTERLY       CLOUDY    37  31  78 CALM      30.29F                  
$$
 
CTZALL-300600-
CONNECTICUT
  
CITY           SKY/WX    TMP DP  RH WIND       PRES   REMARKS
BRADLEY INTL   MOCLDY    31  26  82 E3        30.28F                  
HARTFORD       MOCLDY    32  29  88 CALM      30.30F                  
BRIDGEPORT     CLOUDY    34  30  85 N7        30.28F WCI  28          
DANBURY        MOCLDY    29  24  82 CALM      30.27F                  
GROTON         PTCLDY    37  31  78 N6        30.29F                  
NEW HAVEN      CLOUDY    34  30  85 N6        30.28F WCI  29          
CHESTER        CLOUDY    34  30  86 CALM      30.28F                  
MERIDEN        CLOUDY    30  27  88 CALM      30.29F                  
WILLIMANTIC    CLOUDY    30  28  92 CALM      30.31R                  
OXFORD         CLOUDY    30  28  92 E6        30.25F WCI  24          
$$

MEZ002-015-021-024-NHZ003-005-008-011-012-014-VTZ005-008-300600-
NORTHERN NEW ENGLAND
  
CITY           SKY/WX    TMP DP  RH WIND       PRES   REMARKS
PORTLAND ME    LGT RAIN  37  33  85 SE3       30.35F                  
BANGOR ME      PTCLDY    23  20  88 CALM      30.38F                  
CONCORD NH     CLOUDY    30  27  88 MISG      30.30F                  
MANCHESTER NH  MOCLDY    33  27  78 CALM      30.29F                  
NASHUA NH      CLOUDY    30  30 100 NW3       30.31F                  
PORTSMOUTH NH  CLOUDY    38  34  84 CALM      30.31S                  
JAFFREY NH     MOCLDY    28  24  85 CALM      30.26F                  
KEENE NH       MOCLDY    23  23 100 CALM        N/A                   
BURLINGTON VT  CLOUDY    36  24  62 S12       30.20F WCI  28          
MT. WASHINGTON MOCLDY    23   0  36 S26G36      N/A  WCI   6          
$$

NYZ052-076-300600-
EASTERN NEW YORK
  
CITY           SKY/WX    TMP DP  RH WIND       PRES   REMARKS
ALBANY         PTCLDY    31  24  75 SE3       30.23F                  
NEW YORK CITY  MOCLDY    40  28  62 E6        30.27F                  
$$
 
ANZALL-300600-
MARINE OBSERVATIONS
  
STATION/POSITION TIME  TEMP    WIND        PRES    VSBY  WAVE
                       AIR SEA DIR/SP/G                  HT/PER
                 (UTC) (F)     (DEG/KT/KT) (MB)    (MI)  (FT/S)
BOSTON BUOY      0450      51  220/ 12/ 14 1027.2F         3/ 6
BUZZARDS BAY     0400   44     120/  6/  7 1026.9F
NANTUCKET SOUND  0450   45     210/  4/  6 1026.4F         1
MASS BAY-STELLWA 0304   45 51  130/ 10/ 14 1026.2F  1 7/8  3/11
ISLE OF SHOALS   0400   43     120/ 13/ 15 1025.9F
S OF BLOCK IS    0456      55                N/A           2/ 9
$$

......................KEY.........................
  SKY/WX - SKY CONDITION/PRESENT WEATHER
  TMP    - TEMPERATURE IN FAHRENHEIT
  DWPT   - DEWPOINT IN FAHRENHEIT
  RH     - RELATIVE HUMIDITY IN PERCENT
  WIND   - DIRECTION AND SPEED IN MPH
  PRES   - MEAN SEA LEVEL PRESSURE IN INCHES OF HG
  WCI    - WIND CHILL INDEX
  VSB    - VISIBILITY IN MILES
  HX     - HEAT INDEX
  TC     - TEMPERATURE IN CELSIUS
  VRB    - VARIABLE WIND DIRECTION
  N/A    - NOT AVAILABLE
  
      

Other recent Regional Weather Roundups

Tue Nov 29, 11:10pm

Tue Nov 29, 10:10pm

Tue Nov 29, 9:10pm

Tue Nov 29, 8:10pm

Tue Nov 29, 7:10pm

Tue Nov 29, 6:10pm

Tue Nov 29, 5:10pm

Tue Nov 29, 4:10pm

Tue Nov 29, 3:10pm

Tue Nov 29, 2:10pm

Tue Nov 29, 1:10pm

Tue Nov 29, 12:10pm

Tue Nov 29, 11:10am

Tue Nov 29, 10:10am

Tue Nov 29, 9:10am

Tue Nov 29, 8:10am

Tue Nov 29, 7:10am

Tue Nov 29, 6:10am

Tue Nov 29, 5:10am

Tue Nov 29, 4:10am

Tue Nov 29, 3:10am

Tue Nov 29, 2:10am

Tue Nov 29, 1:10am

Tue Nov 29, 12:10am

Mon Nov 28, 11:10pm

Mon Nov 28, 10:10pm

Mon Nov 28, 9:10pm

Mon Nov 28, 8:10pm

Mon Nov 28, 7:10pm

Mon Nov 28, 6:10pm

Mon Nov 28, 5:10pm

Mon Nov 28, 4:10pm

Mon Nov 28, 3:10pm

Mon Nov 28, 1:10pm

Mon Nov 28, 12:10pm

Mon Nov 28, 11:10am

Mon Nov 28, 11:10am

Mon Nov 28, 10:10am

Mon Nov 28, 9:10am

Mon Nov 28, 8:10am

Mon Nov 28, 7:10am

Mon Nov 28, 6:10am

Mon Nov 28, 5:10am

Mon Nov 28, 4:10am

Mon Nov 28, 3:10am

Mon Nov 28, 2:10am

Mon Nov 28, 1:10am

Mon Nov 28, 12:10am

Sun Nov 27, 11:10pm

Sun Nov 27, 10:10pm

Sun Nov 27, 9:10pm

Sun Nov 27, 8:10pm

Sun Nov 27, 7:10pm

Sun Nov 27, 6:10pm

Sun Nov 27, 5:10pm

Sun Nov 27, 4:10pm

Sun Nov 27, 3:10pm

Sun Nov 27, 2:10pm

Sun Nov 27, 1:10pm

Sun Nov 27, 12:10pm

Sun Nov 27, 11:10am

Sun Nov 27, 10:10am

Sun Nov 27, 9:10am

Sun Nov 27, 8:10am

Sun Nov 27, 7:10am

Sun Nov 27, 6:10am

Sun Nov 27, 5:10am

Sun Nov 27, 4:10am

Sun Nov 27, 3:10am

Sun Nov 27, 2:10am

Sun Nov 27, 1:10am

Sun Nov 27, 12:10am

Sat Nov 26, 11:10pm

Sat Nov 26, 10:10pm

Sat Nov 26, 9:10pm

Sat Nov 26, 8:10pm

Sat Nov 26, 7:10pm

Sat Nov 26, 6:10pm

Sat Nov 26, 5:10pm

Sat Nov 26, 4:10pm

Sat Nov 26, 3:10pm

Sat Nov 26, 2:10pm

Sat Nov 26, 1:10pm

Sat Nov 26, 12:10pm

Sat Nov 26, 11:10am

Sat Nov 26, 10:10am

Sat Nov 26, 9:10am

Sat Nov 26, 8:10am

Sat Nov 26, 7:10am

Sat Nov 26, 6:10am

Sat Nov 26, 5:10am

Sat Nov 26, 4:10am

Sat Nov 26, 3:10am

Sat Nov 26, 2:10am

Sat Nov 26, 1:10am

Sat Nov 26, 12:10am

Fri Nov 25, 11:10pm

Fri Nov 25, 10:10pm

Fri Nov 25, 9:10pm

Fri Nov 25, 8:10pm

Fri Nov 25, 7:10pm

Fri Nov 25, 6:10pm

Fri Nov 25, 5:10pm

Fri Nov 25, 4:10pm

Fri Nov 25, 3:10pm

Fri Nov 25, 2:10pm

Fri Nov 25, 1:10pm

Fri Nov 25, 12:10pm

Fri Nov 25, 11:10am

Fri Nov 25, 10:10am

Fri Nov 25, 9:10am

Fri Nov 25, 8:10am

Fri Nov 25, 7:10am

Fri Nov 25, 6:10am

Fri Nov 25, 5:10am

Fri Nov 25, 4:10am

Fri Nov 25, 3:10am

Fri Nov 25, 2:10am

Fri Nov 25, 1:10am

Fri Nov 25, 12:10am

Thu Nov 24, 11:10pm

Thu Nov 24, 10:10pm

Thu Nov 24, 9:10pm

Thu Nov 24, 8:10pm

Thu Nov 24, 7:10pm

Thu Nov 24, 6:10pm

Thu Nov 24, 5:10pm

Thu Nov 24, 4:10pm

Thu Nov 24, 3:10pm

Thu Nov 24, 2:10pm

Thu Nov 24, 1:10pm

Thu Nov 24, 12:10pm

Thu Nov 24, 11:10am

Thu Nov 24, 10:10am

Thu Nov 24, 9:10am

Thu Nov 24, 8:10am

Thu Nov 24, 7:10am

Thu Nov 24, 6:10am

Thu Nov 24, 5:10am

Thu Nov 24, 4:10am

Thu Nov 24, 3:10am

Thu Nov 24, 2:10am

Thu Nov 24, 1:10am

Thu Nov 24, 12:10am

Wed Nov 23, 11:10pm

Wed Nov 23, 10:10pm

Wed Nov 23, 9:10pm

Wed Nov 23, 8:10pm

Wed Nov 23, 7:10pm

Wed Nov 23, 6:10pm

Wed Nov 23, 5:10pm

Wed Nov 23, 4:10pm

Wed Nov 23, 3:10pm

Wed Nov 23, 2:10pm

Wed Nov 23, 1:10pm

Wed Nov 23, 12:10pm

Wed Nov 23, 11:10am

Wed Nov 23, 10:10am

Wed Nov 23, 9:10am

Wed Nov 23, 8:10am

Wed Nov 23, 7:10am

Wed Nov 23, 6:10am

Wed Nov 23, 5:10am

Wed Nov 23, 4:10am

Wed Nov 23, 3:10am

Wed Nov 23, 2:10am

Wed Nov 23, 1:10am

Meta data:

ID: 0f3fe1a3-de06-4a72-afaa-065d51b57870
Link: https://api.weather.gov/products/0f3fe1a3-de06-4a72-afaa-065d51b57870